Weather History for Ogden Hill AFB, UT

Change the Weather History Date:

Saturday, February 15, 2014

  Actual Average Record
Temperature  
Mean Temperature 48 °F -  
Max Temperature 53 °F 38 °F 55 °F (2011)
Min Temperature 42 °F 24 °F 14 °F (2004)
Degree Days  
Heating Degree Days 18    
Moisture  
Dew Point 18 °F    
Average Humidity 29    
Maximum Humidity 56    
Minimum Humidity 14    
Precipitation  
Precipitation 0.00 in - - ()
Sea Level Pressure  
Sea Level Pressure 29.90 in    
Wind  
Wind Speed 10 mph (South)    
Max Wind Speed 21 mph    
Max Gust Speed -    
Visibility 10 miles    
Events      
Averages and records for this station are not official NWS values.
T = Trace of Precipitation, MM = Missing Value Source: NWS Daily Summary

Daily Weather History Graph

Daily Weather History Graph

Search for Another Location

Airport:

Trip Planner

Search our weather history database for the weather conditions in past years. The results will help you decide how hot, cold, wet, or windy it might be!

Date:

Astronomy

Feb. 15, 2014 Rise Set
Actual Time 7:22 AM MST 6:02 PM MST
Civil Twilight 6:54 AM MST 6:30 PM MST
Nautical Twilight 6:21 AM MST 7:02 PM MST
Astronomical Twilight 5:49 AM MST 7:34 PM MST
Moon 7:06 PM MST (2/15) 7:22 AM MST (2/15)
Length of Visible Light 11h 36m
Length of Day
10h 39m
Waxing Gibbous, 99% of the Moon is Illuminated
Feb 15
Waxing Gibbous
Feb 22
Last Quarter
Mar 1
New
Mar 8
First Quarter
Mar 16
Full

Hourly Weather History & Observations

Time (MST) Temp. Windchill Dew Point Humidity Pressure Visibility Wind Dir Wind Speed Gust Speed Precip Events Conditions
12:58 AM 51.3 °F - 21.7 °F 31% 29.90 in 10.0 mi South 12.7 mph - N/A   Overcast
1:53 AM 51.8 °F - 19.4 °F 28% 29.95 in 10.0 mi South 12.7 mph - N/A   Overcast
1:58 AM 52.2 °F - 19.4 °F 28% 29.88 in 10.0 mi SSE 12.7 mph - N/A   Overcast
2:58 AM 52.3 °F - 16.9 °F 25% 29.87 in 10.0 mi South 12.7 mph - N/A   Overcast
3:58 AM 50.0 °F - 20.7 °F 32% 29.88 in 10.0 mi South 9.2 mph - N/A   Overcast
4:58 AM 49.1 °F - 21.0 °F 33% 29.91 in 10.0 mi South 4.6 mph - N/A   Overcast
5:58 AM 48.0 °F - 21.7 °F 36% 29.91 in 10.0 mi SSE 4.6 mph - N/A   Overcast
6:58 AM 45.0 °F 40.1 °F 25.3 °F 46% 29.94 in 10.0 mi NNW 9.2 mph - N/A   Overcast
7:58 AM 42.6 °F 37.8 °F 27.9 °F 56% 29.97 in 10.0 mi NNW 8.1 mph - N/A   Overcast
8:58 AM 43.5 °F 41.9 °F 27.1 °F 53% 29.98 in 10.0 mi NW 3.5 mph - N/A   Overcast
10:58 AM 48.4 °F - 23.5 °F 38% 29.98 in 10.0 mi SSE 5.8 mph - N/A   Overcast
11:58 AM 50.4 °F - 21.2 °F 32% 29.97 in 10.0 mi SE 3.5 mph - N/A   Mostly Cloudy
12:58 PM 50.2 °F - 21.7 °F 33% 29.94 in 10.0 mi South 5.8 mph - N/A   Mostly Cloudy
1:58 PM 52.0 °F - 20.3 °F 29% 29.91 in 10.0 mi South 9.2 mph - N/A   Scattered Clouds
2:58 PM 52.0 °F - 21.7 °F 31% 29.91 in 10.0 mi NNW 3.5 mph - N/A   Scattered Clouds
3:58 PM 53.8 °F - 14.0 °F 21% 29.89 in 10.0 mi South 9.2 mph - N/A   Partly Cloudy
4:58 PM 52.9 °F - 14.4 °F 22% 29.88 in 10.0 mi South 8.1 mph - N/A   Partly Cloudy
5:58 PM 52.0 °F - 12.7 °F 21% 29.88 in 10.0 mi South 9.2 mph - N/A   Partly Cloudy
6:58 PM 51.8 °F - 12.7 °F 21% 29.89 in 10.0 mi SSE 5.8 mph - N/A   Partly Cloudy
7:58 PM 53.6 °F - 8.8 °F 17% 29.86 in 10.0 mi South 16.1 mph - N/A   Mostly Cloudy
8:09 PM 53.6 °F - 10.4 °F 18% 29.92 in 10.0 mi SSW 12.7 mph - N/A   Scattered Clouds
8:58 PM 50.5 °F - 14.4 °F 24% 29.86 in 10.0 mi South 15.0 mph - N/A   Mostly Cloudy
9:58 PM 47.7 °F - 19.8 °F 33% 29.86 in 10.0 mi SSE 10.4 mph - N/A   Mostly Cloudy
10:49 PM 51.8 °F - 8.6 °F 18% 29.87 in 10.0 mi South 16.1 mph - N/A   Partly Cloudy
10:58 PM 53.1 °F - 5.0 °F 14% 29.77 in 10.0 mi South 20.7 mph - N/A   Partly Cloudy
11:58 PM 51.1 °F - 10.6 °F 20% 29.78 in 10.0 mi SSW 11.5 mph - N/A   Overcast